Woodruff, WI

2:07 AM CDT on September 26, 2016 (GMT -0500)
Lakeland-Lee Memorial

Weather History for KARV - January, 2014

Change the Weather History Date:

Thursday, January 2, 2014

  Actual Average Record
Temperature  
Mean Temperature -4 °F -  
Max Temperature 5 °F 19 °F 41 °F (1944)
Min Temperature -13 °F 0 °F -33 °F (1974)
Degree Days  
Heating Degree Days 69    
Moisture  
Dew Point -10 °F    
Average Humidity 75    
Maximum Humidity 84    
Minimum Humidity 64    
Precipitation  
Precipitation 0.00 in - - ()
Sea Level Pressure  
Sea Level Pressure 30.29 in    
Wind  
Wind Speed 1 mph (North)    
Max Wind Speed 12 mph    
Max Gust Speed 17 mph    
Visibility 10 miles    
Events Snow    
Averages and records for this station are not official NWS values.
T = Trace of Precipitation, MM = Missing Value Source: NWS Daily Summary

Daily Weather History Graph

Daily Weather History Graph

Search for Another Location

Airport or City:

Trip Planner

Search our weather history database for the weather conditions in past years. The results will help you decide how hot, cold, wet, or windy it might be!

Date:

Astronomy

Jan. 02, 2014 Rise Set
Actual Time 7:40 AM CST 4:25 PM CST
Civil Twilight 7:06 AM CST 4:59 PM CST
Nautical Twilight 6:28 AM CST 5:37 PM CST
Astronomical Twilight 5:52 AM CST 6:13 PM CST
Moon 8:15 AM CST (1/2) 6:30 PM CST (1/2)
Length of Visible Light 9h 53m
Length of Day
8h 45m
Waxing Crescent, 3% of the Moon is Illuminated
Jan 2
Waxing Crescent
Jan 7
First Quarter
Jan 15
Full
Jan 23
Last Quarter
Jan 30
New

Hourly Weather History & Observations

Time (CST) Temp. Windchill Dew Point Humidity Pressure Visibility Wind Dir Wind Speed Gust Speed Precip Events Conditions
12:15 AM -7.8 °F - -12.8 °F 79% 30.29 in 10.0 mi Calm Calm - N/A   Scattered Clouds
12:35 AM -8.0 °F - -12.6 °F 80% 30.29 in 10.0 mi Calm Calm - N/A   Clear
12:55 AM -8.5 °F - -13.4 °F 79% 30.29 in 7.0 mi Calm Calm - N/A Snow Light Snow
1:15 AM -8.1 °F - -13.4 °F 78% 30.29 in 5.0 mi Calm Calm - N/A Snow Light Snow
1:35 AM -8.1 °F - -13.2 °F 79% 30.29 in 3.0 mi Calm Calm - N/A Snow Light Snow
1:55 AM -7.2 °F - -12.5 °F 78% 30.29 in 4.0 mi Calm Calm - N/A Snow Light Snow
2:15 AM -8.3 °F - -13.5 °F 78% 30.29 in 7.0 mi Calm Calm - N/A Snow Light Snow
2:35 AM -8.7 °F - -14.1 °F 77% 30.29 in 10.0 mi Calm Calm - N/A   Overcast
2:55 AM -7.6 °F - -13.0 °F 77% 30.29 in 10.0 mi Calm Calm - N/A   Overcast
3:15 AM -7.6 °F - -13.0 °F 77% 30.28 in 7.0 mi Calm Calm - N/A Snow Light Snow
3:35 AM -7.2 °F - -12.5 °F 78% 30.28 in 7.0 mi Calm Calm - N/A Snow Light Snow
3:55 AM -7.6 °F - -13.0 °F 77% 30.27 in 5.0 mi Calm Calm - N/A Snow Light Snow
4:15 AM -8.7 °F - -14.1 °F 77% 30.27 in 10.0 mi Calm Calm - N/A Snow Light Snow
4:35 AM -8.7 °F - -14.1 °F 77% 30.27 in 7.0 mi Calm Calm - N/A Snow Light Snow
4:55 AM -8.7 °F - -14.1 °F 77% 30.27 in 10.0 mi Calm Calm - N/A   Scattered Clouds
5:15 AM -8.7 °F - -13.9 °F 78% 30.27 in 10.0 mi Calm Calm - N/A   Clear
5:35 AM -11.2 °F - -16.2 °F 78% 30.28 in 10.0 mi Calm Calm - N/A   Mostly Cloudy
5:55 AM -12.5 °F - -17.9 °F 77% 30.28 in 10.0 mi Calm Calm - N/A   Overcast
6:15 AM -11.2 °F - -16.2 °F 78% 30.28 in 10.0 mi Calm Calm - N/A   Overcast
6:35 AM -11.2 °F - -16.6 °F 77% 30.29 in 10.0 mi Calm Calm - N/A   Mostly Cloudy
6:55 AM -11.2 °F - -16.6 °F 77% 30.29 in 10.0 mi Calm Calm - N/A   Overcast
7:15 AM -11.6 °F - -17.0 °F 77% 30.29 in 10.0 mi Calm Calm - N/A   Overcast
7:35 AM -11.2 °F - -16.6 °F 77% 30.28 in 10.0 mi Calm Calm - N/A   Overcast
7:55 AM -12.1 °F - -17.7 °F 76% 30.29 in 10.0 mi Calm Calm - N/A   Mostly Cloudy
8:15 AM -13.5 °F - -19.1 °F 76% 30.29 in 10.0 mi Calm Calm - N/A   Scattered Clouds
8:35 AM -12.5 °F - -18.2 °F 76% 30.29 in 10.0 mi Calm Calm - N/A   Scattered Clouds
8:55 AM -11.2 °F - -16.6 °F 77% 30.30 in 10.0 mi Calm Calm - N/A   Mostly Cloudy
9:15 AM -8.7 °F - -14.6 °F 75% 30.31 in 10.0 mi Calm Calm - N/A   Overcast
9:35 AM -8.7 °F - -13.9 °F 78% 30.32 in 10.0 mi Calm Calm - N/A   Overcast
9:55 AM -3.6 °F - -8.5 °F 80% 30.32 in 10.0 mi Calm Calm - N/A   Overcast
10:15 AM -1.3 °F -9.3 °F -5.8 °F 81% 30.32 in 10.0 mi North 3.5 mph - N/A   Mostly Cloudy
10:35 AM 0.7 °F - -4.0 °F 81% 30.31 in 10.0 mi Calm Calm - N/A   Mostly Cloudy
10:55 AM 1.4 °F - -3.6 °F 79% 30.30 in 10.0 mi Calm Calm - N/A   Scattered Clouds
11:15 AM 2.5 °F -5.0 °F -2.7 °F 79% 30.29 in 10.0 mi North 3.5 mph - N/A   Clear
11:35 AM 2.8 °F -6.6 °F -3.5 °F 75% 30.29 in 10.0 mi NNW 4.6 mph - N/A   Clear
11:55 AM 3.2 °F -7.8 °F -4.4 °F 71% 30.28 in 10.0 mi North 5.8 mph - N/A   Clear
12:15 PM 4.8 °F -2.3 °F -4.9 °F 64% 30.27 in 10.0 mi NNE 3.5 mph - N/A   Clear
12:35 PM 5.0 °F -6.9 °F -4.7 °F 64% 30.27 in 10.0 mi North 6.9 mph - N/A   Mostly Cloudy
12:55 PM 5.0 °F -10.8 °F -4.2 °F 66% 30.27 in 10.0 mi NNW 11.5 mph 17.3 mph N/A   Mostly Cloudy
1:15 PM 5.2 °F -8.9 °F -4.5 °F 64% 30.27 in 10.0 mi North 9.2 mph 17.3 mph N/A   Mostly Cloudy
1:35 PM 5.0 °F -10.8 °F -4.9 °F 64% 30.27 in 10.0 mi North 11.5 mph - N/A   Mostly Cloudy
1:55 PM 5.5 °F -8.4 °F -4.4 °F 64% 30.28 in 10.0 mi North 9.2 mph - N/A   Overcast
2:15 PM 5.5 °F -6.3 °F -4.2 °F 64% 30.28 in 10.0 mi North 6.9 mph - N/A   Overcast
2:35 PM 5.5 °F -5.0 °F -3.8 °F 65% 30.28 in 10.0 mi North 5.8 mph - N/A   Overcast
2:55 PM 5.5 °F -5.0 °F -3.6 °F 66% 30.28 in 10.0 mi North 5.8 mph - N/A   Overcast
3:15 PM 5.9 °F -4.5 °F -4.0 °F 64% 30.28 in 10.0 mi North 5.8 mph - N/A   Overcast
3:35 PM 5.5 °F -7.4 °F -4.2 °F 64% 30.29 in 10.0 mi North 8.1 mph - N/A   Overcast
3:55 PM 5.7 °F -3.2 °F -4.0 °F 64% 30.29 in 10.0 mi NNW 4.6 mph - N/A   Overcast
4:15 PM 5.0 °F -2.1 °F -4.0 °F 66% 30.29 in 10.0 mi NNW 3.5 mph - N/A   Overcast
4:35 PM 4.8 °F -7.1 °F -4.7 °F 65% 30.30 in 10.0 mi North 6.9 mph - N/A   Overcast
4:55 PM 4.8 °F -5.8 °F -4.0 °F 67% 30.30 in 10.0 mi NNW 5.8 mph - N/A   Overcast
5:15 PM 4.3 °F -6.5 °F -4.2 °F 68% 30.29 in 10.0 mi NNW 5.8 mph - N/A   Overcast
5:35 PM 4.1 °F -3.2 °F -4.4 °F 68% 30.29 in 10.0 mi NNW 3.5 mph - N/A   Overcast
5:55 PM 4.1 °F -5.1 °F -3.8 °F 70% 30.29 in 10.0 mi NNW 4.6 mph - N/A   Overcast
6:15 PM 3.9 °F - -3.3 °F 72% 30.29 in 10.0 mi Calm Calm - N/A   Overcast
6:35 PM 3.2 °F - -3.3 °F 74% 30.29 in 10.0 mi Calm Calm - N/A   Overcast
6:55 PM 2.7 °F - -3.6 °F 75% 30.30 in 10.0 mi Calm Calm - N/A   Overcast
7:15 PM 1.9 °F - -3.8 °F 77% 30.29 in 10.0 mi Calm Calm - N/A   Overcast
7:35 PM 1.4 °F - -4.0 °F 78% 30.29 in 10.0 mi Calm Calm - N/A   Overcast
7:55 PM -1.3 °F - -5.8 °F 81% 30.29 in 10.0 mi Calm Calm - N/A   Overcast
8:15 PM -0.4 °F - -4.9 °F 81% 30.29 in 10.0 mi Calm Calm - N/A   Overcast
8:35 PM 0.9 °F - -3.6 °F 81% 30.29 in 10.0 mi Calm Calm - N/A   Mostly Cloudy
8:55 PM -3.6 °F - -7.8 °F 82% 30.28 in 10.0 mi Calm Calm - N/A   Clear
9:15 PM -3.6 °F - -7.4 °F 84% 30.29 in 10.0 mi Calm Calm - N/A   Clear
9:35 PM -6.2 °F - -10.3 °F 82% 30.29 in 10.0 mi Calm Calm - N/A   Clear
9:55 PM -6.2 °F - -10.5 °F 82% 30.29 in 10.0 mi Calm Calm - N/A   Clear
10:15 PM -7.8 °F - -12.5 °F 80% 30.27 in 10.0 mi Calm Calm - N/A   Clear
10:35 PM -8.7 °F - -13.7 °F 79% 30.27 in 10.0 mi Calm Calm - N/A   Clear
10:55 PM -8.7 °F - -13.9 °F 78% 30.26 in 10.0 mi Calm Calm - N/A   Clear
11:15 PM -8.7 °F - -13.9 °F 78% 30.26 in 10.0 mi Calm Calm - N/A   Clear
11:35 PM -8.9 °F - -14.1 °F 78% 30.25 in 10.0 mi Calm Calm - N/A   Clear
11:55 PM -11.2 °F - -16.8 °F 76% 30.25 in 10.0 mi Calm Calm - N/A   Clear